Location: Caltech
(34.1382°N, 118.1253°W)
Time: 05:45:15
(UTC-07:00)

ARGOS - Visible Passes

Search period start: 26 September 2017 00:00
Search period end: 06 October 2017 00:00
Orbit: 821 x 834 km, 98.6° (Epoch: 25 September)

Date Brightness Start Highest point End Pass type
(mag) Time Alt. Az. Time Alt. Az. Time Alt. Az.
26 Sep 5.8 22:09:48 12° NNW 22:09:48 12° NNW 22:10:11 10° NNW visible
27 Sep 5.7 21:51:07 12° N 21:51:07 12° N 21:51:33 10° N visible
28 Sep 5.7 21:32:27 12° N 21:32:27 12° N 21:32:46 10° N visible
